Time,TemperatureF,DewpointF,PressureIn,WindDirection,WindDirectionDegrees,WindSpeedMPH,WindSpeedGustMPH,Humidity,HourlyPrecipIn,Conditions,Clouds,dailyrainin,SoftwareType,DateUTC
2013-01-18 00:01:00,26.3,8.8,29.95,NW,320,3.0,6.0,47,0.00,,,0.00,Wunderground v.1.12,2013-01-18 05:01:00,
2013-01-18 00:04:00,26.3,8.8,29.96,NNW,327,3.0,5.0,47,0.00,,,0.00,Wunderground v.1.12,2013-01-18 05:04:00,
2013-01-18 00:05:00,26.1,8.6,29.96,NNW,327,3.0,5.0,47,0.00,,,0.00,Wunderground v.1.12,2013-01-18 05:05:00,
2013-01-18 00:09:00,26.1,7.6,29.96,NNW,345,4.0,4.0,45,0.00,,,0.00,Wunderground v.1.12,2013-01-18 05:09:00,
2013-01-18 00:15:00,26.0,9.0,29.96,NNW,339,3.0,3.0,48,0.00,,,0.00,Wunderground v.1.12,2013-01-18 05:15:00,
2013-01-18 00:20:00,25.8,6.9,29.98,NNW,330,2.0,5.0,44,0.00,,,0.00,Wunderground v.1.12,2013-01-18 05:20:00,
2013-01-18 00:25:00,25.8,7.8,29.98,NNW,330,2.0,2.0,46,0.00,,,0.00,Wunderground v.1.12,2013-01-18 05:25:00,
2013-01-18 00:31:00,25.7,6.3,29.98,NNW,337,2.0,6.0,43,0.00,,,0.00,Wunderground v.1.12,2013-01-18 05:31:00,
2013-01-18 00:36:00,25.6,6.2,29.99,NNW,336,3.0,3.0,43,0.00,,,0.00,Wunderground v.1.12,2013-01-18 05:36:00,
2013-01-18 00:41:00,25.4,5.5,29.99,NW,323,2.0,3.0,42,0.00,,,0.00,Wunderground v.1.12,2013-01-18 05:41:00,
2013-01-18 00:48:00,25.3,6.4,30.00,NNW,330,1.0,3.0,44,0.00,,,0.00,Wunderground v.1.12,2013-01-18 05:48:00,
2013-01-18 00:53:00,25.3,6.4,30.00,NNW,338,2.0,10.0,44,0.00,,,0.00,Wunderground v.1.12,2013-01-18 05:53:00,
2013-01-18 00:58:00,25.1,4.1,30.00,WNW,285,2.0,5.0,40,0.00,,,0.00,Wunderground v.1.12,2013-01-18 05:58:00,
2013-01-18 01:04:00,25.0,3.5,30.02,NNW,331,2.0,2.0,39,0.00,,,0.00,Wunderground v.1.12,2013-01-18 06:04:00,
2013-01-18 01:09:00,24.8,1.0,30.02,NNW,344,2.0,3.0,35,0.00,,,0.00,Wunderground v.1.12,2013-01-18 06:09:00,
2013-01-18 01:15:00,24.7,2.7,30.02,NNW,338,3.0,3.0,38,0.00,,,0.00,Wunderground v.1.12,2013-01-18 06:15:00,
2013-01-18 01:21:00,24.5,-0.5,29.99,NW,323,4.0,4.0,33,0.00,,,0.00,Wunderground v.1.12,2013-01-18 06:21:00,
2013-01-18 01:26:00,24.4,0.0,29.99,NW,323,4.0,5.0,34,0.00,,,0.00,Wunderground v.1.12,2013-01-18 06:26:00,
2013-01-18 01:33:00,24.1,1.0,29.99,NW,321,3.0,3.0,36,0.00,,,0.00,Wunderground v.1.12,2013-01-18 06:33:00,
2013-01-18 01:38:00,23.9,-0.4,29.99,NW,320,3.0,3.0,34,0.00,,,0.00,Wunderground v.1.12,2013-01-18 06:38:00,
2013-01-18 01:43:00,23.8,1.8,29.99,NW,319,2.0,3.0,38,0.00,,,0.00,Wunderground v.1.12,2013-01-18 06:43:00,
2013-01-18 01:48:00,23.6,1.7,30.00,NW,311,2.0,3.0,38,0.00,,,0.00,Wunderground v.1.12,2013-01-18 06:48:00,
2013-01-18 01:54:00,23.6,1.1,30.00,NW,315,3.0,11.0,37,0.00,,,0.00,Wunderground v.1.12,2013-01-18 06:54:00,
2013-01-18 01:59:00,23.5,3.7,30.00,NW,313,1.0,2.0,42,0.00,,,0.00,Wunderground v.1.12,2013-01-18 06:59:00,
2013-01-18 02:04:00,23.3,3.0,30.01,NW,313,1.0,1.0,41,0.00,,,0.00,Wunderground v.1.12,2013-01-18 07:04:00,
2013-01-18 02:09:00,23.2,1.3,30.01,NW,319,2.0,2.0,38,0.00,,,0.00,Wunderground v.1.12,2013-01-18 07:09:00,
2013-01-18 02:15:00,23.2,3.5,30.01,NW,320,1.0,1.0,42,0.00,,,0.00,Wunderground v.1.12,2013-01-18 07:15:00,
2013-01-18 02:21:00,23.0,2.2,30.03,WNW,294,1.0,5.0,40,0.00,,,0.00,Wunderground v.1.12,2013-01-18 07:21:00,
2013-01-18 02:26:00,22.9,3.7,30.03,WNW,295,1.0,4.0,43,0.00,,,0.00,Wunderground v.1.12,2013-01-18 07:26:00,
2013-01-18 02:33:00,22.9,3.7,30.01,NW,324,1.0,2.0,43,0.00,,,0.00,Wunderground v.1.12,2013-01-18 07:33:00,
2013-01-18 02:38:00,22.7,2.0,30.01,NNW,329,2.0,5.0,40,0.00,,,0.00,Wunderground v.1.12,2013-01-18 07:38:00,
2013-01-18 02:43:00,22.4,-2.4,30.01,West,265,2.0,4.0,33,0.00,,,0.00,Wunderground v.1.12,2013-01-18 07:43:00,
2013-01-18 02:48:00,21.9,-2.9,30.03,NW,321,3.0,7.0,33,0.00,,,0.00,Wunderground v.1.12,2013-01-18 07:48:00,
2013-01-18 02:54:00,21.8,-4.3,30.03,NW,317,2.0,3.0,31,0.00,,,0.00,Wunderground v.1.12,2013-01-18 07:54:00,
2013-01-18 02:59:00,21.6,-4.4,30.03,NNW,327,3.0,3.0,31,0.00,,,0.00,Wunderground v.1.12,2013-01-18 07:59:00,
2013-01-18 03:04:00,21.3,-3.4,30.05,NW,318,4.0,5.0,33,0.00,,,0.00,Wunderground v.1.12,2013-01-18 08:04:00,
2013-01-18 03:10:00,21.1,-3.6,30.05,NNW,327,4.0,6.0,33,0.00,,,0.00,Wunderground v.1.12,2013-01-18 08:10:00,
2013-01-18 03:15:00,21.0,-1.8,30.05,NW,323,4.0,4.0,36,0.00,,,0.00,Wunderground v.1.12,2013-01-18 08:15:00,
2013-01-18 03:20:00,20.8,-1.4,30.04,NNW,328,4.0,4.0,37,0.00,,,0.00,Wunderground v.1.12,2013-01-18 08:20:00,
2013-01-18 03:26:00,20.8,-0.9,30.04,West,275,3.0,3.0,38,0.00,,,0.00,Wunderground v.1.12,2013-01-18 08:26:00,
2013-01-18 03:31:00,20.6,-2.8,30.04,NNW,336,3.0,5.0,35,0.00,,,0.00,Wunderground v.1.12,2013-01-18 08:31:00,
2013-01-18 03:36:00,20.5,-3.5,30.03,NNW,342,3.0,7.0,34,0.00,,,0.00,Wunderground v.1.12,2013-01-18 08:36:00,
2013-01-18 03:43:00,20.2,-2.5,30.03,NW,323,3.0,6.0,36,0.00,,,0.00,Wunderground v.1.12,2013-01-18 08:43:00,
2013-01-18 03:48:00,20.0,-2.1,30.03,West,281,3.0,5.0,37,0.00,,,0.00,Wunderground v.1.12,2013-01-18 08:48:00,
2013-01-18 03:53:00,19.9,-2.8,30.03,NW,311,3.0,10.0,36,0.00,,,0.00,Wunderground v.1.12,2013-01-18 08:53:00,
2013-01-18 03:59:00,19.7,-1.8,30.03,NW,306,3.0,7.0,38,0.00,,,0.00,Wunderground v.1.12,2013-01-18 08:59:00,
2013-01-18 04:04:00,19.5,-3.2,30.03,WNW,303,2.0,2.0,36,0.00,,,0.00,Wunderground v.1.12,2013-01-18 09:04:00,
2013-01-18 04:09:00,19.5,-3.8,30.03,NW,309,3.0,6.0,35,0.00,,,0.00,Wunderground v.1.12,2013-01-18 09:09:00,
2013-01-18 04:14:00,19.4,-1.6,30.03,NW,325,4.0,4.0,39,0.00,,,0.00,Wunderground v.1.12,2013-01-18 09:14:00,
2013-01-18 04:19:00,19.1,-1.8,30.05,NW,320,3.0,3.0,39,0.00,,,0.00,Wunderground v.1.12,2013-01-18 09:19:00,
2013-01-18 04:24:00,18.9,-2.0,30.05,NNW,333,2.0,2.0,39,0.00,,,0.00,Wunderground v.1.12,2013-01-18 09:24:00,
2013-01-18 04:30:00,18.8,-2.7,30.05,NW,306,3.0,3.0,38,0.00,,,0.00,Wunderground v.1.12,2013-01-18 09:30:00,
2013-01-18 04:35:00,18.6,-2.8,30.05,WNW,292,3.0,6.0,38,0.00,,,0.00,Wunderground v.1.12,2013-01-18 09:35:00,
2013-01-18 04:40:00,18.4,-1.9,30.05,NW,313,3.0,3.0,40,0.00,,,0.00,Wunderground v.1.12,2013-01-18 09:40:00,
2013-01-18 04:47:00,18.3,-3.7,30.05,NW,309,3.0,6.0,37,0.00,,,0.00,Wunderground v.1.12,2013-01-18 09:47:00,
2013-01-18 04:53:00,18.1,-3.3,30.05,NW,315,3.0,13.0,38,0.00,,,0.00,Wunderground v.1.12,2013-01-18 09:53:00,
2013-01-18 04:58:00,17.8,-5.9,30.05,WNW,302,4.0,6.0,34,0.00,,,0.00,Wunderground v.1.12,2013-01-18 09:58:00,
2013-01-18 05:03:00,17.7,-5.4,30.07,WNW,301,4.0,4.0,35,0.00,,,0.00,Wunderground v.1.12,2013-01-18 10:03:00,
2013-01-18 05:08:00,17.7,-6.6,30.07,NNW,327,4.0,6.0,33,0.00,,,0.00,Wunderground v.1.12,2013-01-18 10:08:00,
2013-01-18 05:13:00,17.5,-5.5,30.07,NW,317,4.0,4.0,35,0.00,,,0.00,Wunderground v.1.12,2013-01-18 10:13:00,
2013-01-18 05:19:00,17.2,-5.2,30.08,WNW,297,3.0,4.0,36,0.00,,,0.00,Wunderground v.1.12,2013-01-18 10:19:00,
2013-01-18 05:24:00,17.0,-7.2,30.08,WNW,289,3.0,12.0,33,0.00,,,0.00,Wunderground v.1.12,2013-01-18 10:24:00,
2013-01-18 05:32:00,16.5,-6.4,30.08,NW,310,6.0,6.0,35,0.00,,,0.00,Wunderground v.1.12,2013-01-18 10:32:00,
2013-01-18 05:38:00,16.2,-6.7,30.09,West,281,5.0,14.0,35,0.00,,,0.00,Wunderground v.1.12,2013-01-18 10:38:00,
2013-01-18 05:43:00,16.1,-7.4,30.09,WNW,303,5.0,6.0,34,0.00,,,0.00,Wunderground v.1.12,2013-01-18 10:43:00,
2013-01-18 05:49:00,15.7,-9.0,30.10,West,275,5.0,17.0,32,0.00,,,0.00,Wunderground v.1.12,2013-01-18 10:49:00,
2013-01-18 05:54:00,15.6,-8.5,30.10,West,281,5.0,10.0,33,0.00,,,0.00,Wunderground v.1.12,2013-01-18 10:54:00,
2013-01-18 05:59:00,15.2,-8.8,30.10,NW,320,5.0,5.0,33,0.00,,,0.00,Wunderground v.1.12,2013-01-18 10:59:00,
2013-01-18 06:04:00,15.1,-10.2,30.11,NW,309,6.0,6.0,31,0.00,,,0.00,Wunderground v.1.12,2013-01-18 11:04:00,
2013-01-18 06:10:00,14.9,-9.7,30.11,NW,318,5.0,9.0,32,0.00,,,0.00,Wunderground v.1.12,2013-01-18 11:10:00,
2013-01-18 06:15:00,14.6,-9.3,30.11,NW,314,3.0,4.0,33,0.00,,,0.00,Wunderground v.1.12,2013-01-18 11:15:00,
2013-01-18 06:20:00,14.3,-7.8,30.11,NW,313,3.0,3.0,36,0.00,,,0.00,Wunderground v.1.12,2013-01-18 11:20:00,
2013-01-18 06:25:00,14.1,-8.0,30.11,WNW,296,2.0,3.0,36,0.00,,,0.00,Wunderground v.1.12,2013-01-18 11:25:00,
2013-01-18 06:30:00,14.0,-8.7,30.11,WNW,288,3.0,3.0,35,0.00,,,0.00,Wunderground v.1.12,2013-01-18 11:30:00,
2013-01-18 06:36:00,14.0,-10.5,30.13,NW,310,4.0,6.0,32,0.00,,,0.00,Wunderground v.1.12,2013-01-18 11:36:00,
2013-01-18 06:41:00,13.8,-10.1,30.13,WNW,298,4.0,7.0,33,0.00,,,0.00,Wunderground v.1.12,2013-01-18 11:41:00,
2013-01-18 06:48:00,13.6,-9.6,30.14,NW,313,3.0,4.0,34,0.00,,,0.00,Wunderground v.1.12,2013-01-18 11:48:00,
2013-01-18 06:53:00,13.5,-8.5,30.14,NW,315,3.0,4.0,36,0.00,,,0.00,Wunderground v.1.12,2013-01-18 11:53:00,
2013-01-18 06:58:00,13.3,-9.3,30.14,WNW,300,2.0,7.0,35,0.00,,,0.00,Wunderground v.1.12,2013-01-18 11:58:00,
2013-01-18 07:04:00,13.1,-8.9,30.15,WNW,296,2.0,6.0,36,0.00,,,0.00,Wunderground v.1.12,2013-01-18 12:04:00,
2013-01-18 07:09:00,12.9,-8.0,30.15,WNW,293,2.0,2.0,38,0.00,,,0.00,Wunderground v.1.12,2013-01-18 12:09:00,
2013-01-18 07:15:00,12.9,-9.1,30.15,West,277,3.0,8.0,36,0.00,,,0.00,Wunderground v.1.12,2013-01-18 12:15:00,
2013-01-18 07:21:00,12.9,-8.5,30.16,NW,311,5.0,5.0,37,0.00,,,0.00,Wunderground v.1.12,2013-01-18 12:21:00,
2013-01-18 07:26:00,12.8,-9.8,30.16,WNW,296,5.0,6.0,35,0.00,,,0.00,Wunderground v.1.12,2013-01-18 12:26:00,
2013-01-18 07:31:00,12.6,-8.8,30.16,NW,311,4.0,9.0,37,0.00,,,0.00,Wunderground v.1.12,2013-01-18 12:31:00,
2013-01-18 07:38:00,12.4,-10.1,30.17,West,273,5.0,11.0,35,0.00,,,0.00,Wunderground v.1.12,2013-01-18 12:38:00,
2013-01-18 07:43:00,12.6,-10.5,30.17,WNW,283,7.0,7.0,34,0.00,,,0.00,Wunderground v.1.12,2013-01-18 12:43:00,
2013-01-18 07:48:00,12.4,-9.0,30.18,WNW,285,6.0,10.0,37,0.00,,,0.00,Wunderground v.1.12,2013-01-18 12:48:00,
2013-01-18 07:53:00,12.6,-9.4,30.18,WNW,293,5.0,18.0,36,0.00,,,0.00,Wunderground v.1.12,2013-01-18 12:53:00,
2013-01-18 08:00:00,12.6,-9.9,30.18,WNW,286,7.0,7.0,35,0.00,,,0.00,Wunderground v.1.12,2013-01-18 13:00:00,
2013-01-18 08:05:00,12.6,-8.8,30.19,WNW,288,8.0,8.0,37,0.00,,,0.00,Wunderground v.1.12,2013-01-18 13:05:00,
2013-01-18 08:10:00,12.8,-9.2,30.19,West,281,9.0,10.0,36,0.00,,,0.00,Wunderground v.1.12,2013-01-18 13:10:00,
2013-01-18 08:16:00,12.8,-8.1,30.19,WNW,290,9.0,9.0,38,0.00,,,0.00,Wunderground v.1.12,2013-01-18 13:16:00,
2013-01-18 08:21:00,12.8,-8.1,30.20,WNW,286,7.0,14.0,38,0.00,,,0.00,Wunderground v.1.12,2013-01-18 13:21:00,
2013-01-18 08:29:00,12.9,-10.9,30.20,WNW,288,9.0,14.0,33,0.00,,,0.00,Wunderground v.1.12,2013-01-18 13:29:00,
2013-01-18 08:34:00,12.9,-11.5,30.20,WNW,291,11.0,11.0,32,0.00,,,0.00,Wunderground v.1.12,2013-01-18 13:34:00,
2013-01-18 08:39:00,13.1,-11.3,30.20,WNW,291,9.0,15.0,32,0.00,,,0.00,Wunderground v.1.12,2013-01-18 13:39:00,
2013-01-18 08:44:00,13.3,-11.1,30.20,West,264,9.0,9.0,32,0.00,,,0.00,Wunderground v.1.12,2013-01-18 13:44:00,
2013-01-18 08:50:00,13.5,-11.6,30.22,WNW,295,9.0,11.0,31,0.00,,,0.00,Wunderground v.1.12,2013-01-18 13:50:00,
2013-01-18 08:55:00,13.5,-11.6,30.22,West,261,8.0,11.0,31,0.00,,,0.00,Wunderground v.1.12,2013-01-18 13:55:00,
2013-01-18 09:00:00,13.5,-11.6,30.22,WNW,285,7.0,7.0,31,0.00,,,0.00,Wunderground v.1.12,2013-01-18 14:00:00,
2013-01-18 09:06:00,13.5,-11.6,30.22,WNW,290,6.0,7.0,31,0.00,,,0.00,Wunderground v.1.12,2013-01-18 14:06:00,
2013-01-18 09:11:00,13.6,-9.6,30.22,WNW,289,6.0,6.0,34,0.00,,,0.00,Wunderground v.1.12,2013-01-18 14:11:00,
2013-01-18 09:16:00,13.6,-13.5,30.22,West,275,6.0,9.0,28,0.00,,,0.00,Wunderground v.1.12,2013-01-18 14:16:00,
2013-01-18 09:21:00,13.8,-12.7,30.22,West,279,8.0,10.0,29,0.00,,,0.00,Wunderground v.1.12,2013-01-18 14:21:00,
2013-01-18 09:28:00,13.6,-13.5,30.22,West,272,7.0,10.0,28,0.00,,,0.00,Wunderground v.1.12,2013-01-18 14:28:00,
2013-01-18 09:33:00,14.0,-13.2,30.23,WNW,298,8.0,9.0,28,0.00,,,0.00,Wunderground v.1.12,2013-01-18 14:33:00,
2013-01-18 09:38:00,14.1,-13.1,30.23,WNW,294,7.0,12.0,28,0.00,,,0.00,Wunderground v.1.12,2013-01-18 14:38:00,
2013-01-18 09:43:00,14.3,-12.9,30.23,West,263,7.0,15.0,28,0.00,,,0.00,Wunderground v.1.12,2013-01-18 14:43:00,
2013-01-18 09:48:00,14.3,-12.9,30.23,WNW,286,8.0,11.0,28,0.00,,,0.00,Wunderground v.1.12,2013-01-18 14:48:00,
2013-01-18 09:54:00,14.3,-14.4,30.23,West,269,7.0,7.0,26,0.00,,,0.00,Wunderground v.1.12,2013-01-18 14:54:00,
2013-01-18 10:00:00,14.4,-12.8,30.23,NW,323,8.0,12.0,28,0.00,,,0.00,Wunderground v.1.12,2013-01-18 15:00:00,
2013-01-18 10:05:00,14.4,-13.6,30.24,WNW,286,8.0,17.0,27,0.00,,,0.00,Wunderground v.1.12,2013-01-18 15:05:00,
2013-01-18 10:10:00,14.6,-13.4,30.24,West,275,8.0,12.0,27,0.00,,,0.00,Wunderground v.1.12,2013-01-18 15:10:00,
2013-01-18 10:15:00,14.8,-12.5,30.24,WNW,288,9.0,9.0,28,0.00,,,0.00,Wunderground v.1.12,2013-01-18 15:15:00,
2013-01-18 10:21:00,14.9,-12.4,30.24,WNW,282,9.0,11.0,28,0.00,,,0.00,Wunderground v.1.12,2013-01-18 15:21:00,
2013-01-18 10:26:00,14.9,-13.1,30.24,NW,306,9.0,11.0,27,0.00,,,0.00,Wunderground v.1.12,2013-01-18 15:26:00,
2013-01-18 10:34:00,15.1,-12.2,30.24,West,281,9.0,15.0,28,0.00,,,0.00,Wunderground v.1.12,2013-01-18 15:34:00,
2013-01-18 10:39:00,15.4,-10.6,30.24,West,277,8.0,13.0,30,0.00,,,0.00,Wunderground v.1.12,2013-01-18 15:39:00,
2013-01-18 10:44:00,15.6,-12.5,30.24,West,281,8.0,10.0,27,0.00,,,0.00,Wunderground v.1.12,2013-01-18 15:44:00,
2013-01-18 10:49:00,15.6,-11.8,30.23,NW,304,10.0,15.0,28,0.00,,,0.00,Wunderground v.1.12,2013-01-18 15:49:00,
2013-01-18 10:55:00,16.1,-10.6,30.23,WNW,298,9.0,13.0,29,0.00,,,0.00,Wunderground v.1.12,2013-01-18 15:55:00,
2013-01-18 11:00:00,16.2,-11.3,30.23,WNW,297,7.0,10.0,28,0.00,,,0.00,Wunderground v.1.12,2013-01-18 16:00:00,
2013-01-18 11:05:00,16.4,-9.0,30.23,NW,305,7.0,8.0,31,0.00,,,0.00,Wunderground v.1.12,2013-01-18 16:05:00,
2013-01-18 11:10:00,16.9,-8.6,30.23,WNW,298,6.0,14.0,31,0.00,,,0.00,Wunderground v.1.12,2013-01-18 16:10:00,
2013-01-18 11:16:00,17.3,-7.6,30.23,NW,319,6.0,6.0,32,0.00,,,0.00,Wunderground v.1.12,2013-01-18 16:16:00,
2013-01-18 11:21:00,17.5,-9.4,30.23,WNW,292,6.0,9.0,29,0.00,,,0.00,Wunderground v.1.12,2013-01-18 16:21:00,
2013-01-18 11:28:00,17.3,-10.3,30.23,WNW,296,7.0,15.0,28,0.00,,,0.00,Wunderground v.1.12,2013-01-18 16:28:00,
2013-01-18 11:33:00,17.7,-8.5,30.23,NW,320,6.0,9.0,30,0.00,,,0.00,Wunderground v.1.12,2013-01-18 16:33:00,
2013-01-18 11:39:00,17.8,-9.9,30.23,WNW,287,6.0,11.0,28,0.00,,,0.00,Wunderground v.1.12,2013-01-18 16:39:00,
2013-01-18 11:44:00,17.8,-9.9,30.23,WNW,287,9.0,9.0,28,0.00,,,0.00,Wunderground v.1.12,2013-01-18 16:44:00,
2013-01-18 11:49:00,18.0,-9.7,30.23,WNW,285,8.0,8.0,28,0.00,,,0.00,Wunderground v.1.12,2013-01-18 16:49:00,
2013-01-18 11:54:00,18.3,-9.4,30.23,WNW,282,8.0,8.0,28,0.00,,,0.00,Wunderground v.1.12,2013-01-18 16:54:00,
2013-01-18 11:59:00,18.3,-9.4,30.23,WSW,257,9.0,16.0,28,0.00,,,0.00,Wunderground v.1.12,2013-01-18 16:59:00,
2013-01-18 12:04:00,18.3,-10.2,30.23,West,264,11.0,20.0,27,0.00,,,0.00,Wunderground v.1.12,2013-01-18 17:04:00,
2013-01-18 12:10:00,18.6,-9.2,30.23,West,267,9.0,10.0,28,0.00,,,0.00,Wunderground v.1.12,2013-01-18 17:10:00,
2013-01-18 12:16:00,18.6,-9.2,30.23,WNW,300,10.0,11.0,28,0.00,,,0.00,Wunderground v.1.12,2013-01-18 17:16:00,
2013-01-18 12:21:00,18.3,-10.2,30.23,NW,307,13.0,13.0,27,0.00,,,0.00,Wunderground v.1.12,2013-01-18 17:21:00,
2013-01-18 12:28:00,18.6,-6.4,30.23,WNW,292,11.0,15.0,32,0.00,,,0.00,Wunderground v.1.12,2013-01-18 17:28:00,
2013-01-18 12:33:00,18.9,-6.8,30.23,West,274,10.0,10.0,31,0.00,,,0.00,Wunderground v.1.12,2013-01-18 17:33:00,
2013-01-18 12:38:00,19.1,-8.7,30.23,WNW,291,10.0,15.0,28,0.00,,,0.00,Wunderground v.1.12,2013-01-18 17:38:00,
2013-01-18 12:43:00,18.9,-8.9,30.23,WNW,288,12.0,14.0,28,0.00,,,0.00,Wunderground v.1.12,2013-01-18 17:43:00,
2013-01-18 12:48:00,19.4,-4.5,30.23,West,277,12.0,12.0,34,0.00,,,0.00,Wunderground v.1.12,2013-01-18 17:48:00,
2013-01-18 12:54:00,19.7,-6.1,30.23,WNW,298,9.0,10.0,31,0.00,,,0.00,Wunderground v.1.12,2013-01-18 17:54:00,
2013-01-18 12:59:00,19.9,-5.9,30.23,West,277,8.0,8.0,31,0.00,,,0.00,Wunderground v.1.12,2013-01-18 17:59:00,
2013-01-18 13:04:00,20.0,-5.8,30.23,WNW,300,8.0,8.0,31,0.00,,,0.00,Wunderground v.1.12,2013-01-18 18:04:00,
2013-01-18 13:09:00,20.3,-7.0,30.23,WNW,292,7.0,12.0,29,0.00,,,0.00,Wunderground v.1.12,2013-01-18 18:09:00,
2013-01-18 13:14:00,19.9,-6.6,30.23,WNW,288,9.0,9.0,30,0.00,,,0.00,Wunderground v.1.12,2013-01-18 18:14:00,
2013-01-18 13:19:00,20.0,-5.8,30.24,WNW,288,10.0,10.0,31,0.00,,,0.00,Wunderground v.1.12,2013-01-18 18:19:00,
2013-01-18 13:25:00,20.5,-4.7,30.24,NW,311,7.0,9.0,32,0.00,,,0.00,Wunderground v.1.12,2013-01-18 18:25:00,
2013-01-18 13:31:00,20.6,-4.0,30.24,NNW,334,5.0,6.0,33,0.00,,,0.00,Wunderground v.1.12,2013-01-18 18:31:00,
2013-01-18 13:38:00,20.5,-6.1,30.24,WNW,301,4.0,6.0,30,0.00,,,0.00,Wunderground v.1.12,2013-01-18 18:38:00,
2013-01-18 13:43:00,20.5,-6.1,30.24,NW,305,3.0,5.0,30,0.00,,,0.00,Wunderground v.1.12,2013-01-18 18:43:00,
2013-01-18 13:49:00,20.3,-7.7,30.24,West,275,6.0,6.0,28,0.00,,,0.00,Wunderground v.1.12,2013-01-18 18:49:00,
2013-01-18 13:55:00,20.6,-3.4,30.24,WNW,293,6.0,6.0,34,0.00,,,0.00,Wunderground v.1.12,2013-01-18 18:55:00,
2013-01-18 14:00:00,21.0,-7.8,30.24,West,281,4.0,12.0,27,0.00,,,0.00,Wunderground v.1.12,2013-01-18 19:00:00,
2013-01-18 14:05:00,21.1,-7.0,30.25,West,262,7.0,7.0,28,0.00,,,0.00,Wunderground v.1.12,2013-01-18 19:05:00,
2013-01-18 14:11:00,21.3,-7.6,30.25,WNW,293,7.0,7.0,27,0.00,,,0.00,Wunderground v.1.12,2013-01-18 19:11:00,
2013-01-18 14:19:00,21.1,-7.7,30.25,WNW,282,8.0,15.0,27,0.00,,,0.00,Wunderground v.1.12,2013-01-18 19:19:00,
2013-01-18 14:24:00,21.3,-8.3,30.25,WNW,293,6.0,19.0,26,0.00,,,0.00,Wunderground v.1.12,2013-01-18 19:24:00,
2013-01-18 14:29:00,21.3,-6.8,30.25,West,269,6.0,6.0,28,0.00,,,0.00,Wunderground v.1.12,2013-01-18 19:29:00,
2013-01-18 14:35:00,21.4,-6.7,30.26,WNW,288,5.0,14.0,28,0.00,,,0.00,Wunderground v.1.12,2013-01-18 19:35:00,
2013-01-18 14:41:00,21.6,-5.1,30.26,WNW,286,8.0,10.0,30,0.00,,,0.00,Wunderground v.1.12,2013-01-18 19:41:00,
2013-01-18 14:46:00,21.4,-6.7,30.26,West,281,8.0,14.0,28,0.00,,,0.00,Wunderground v.1.12,2013-01-18 19:46:00,
2013-01-18 14:53:00,21.6,-5.8,30.26,West,270,7.0,17.0,29,0.00,,,0.00,Wunderground v.1.12,2013-01-18 19:53:00,
2013-01-18 14:58:00,21.8,-6.4,30.27,West,278,7.0,10.0,28,0.00,,,0.00,Wunderground v.1.12,2013-01-18 19:58:00,
2013-01-18 15:04:00,21.8,-5.6,30.27,WNW,290,6.0,6.0,29,0.00,,,0.00,Wunderground v.1.12,2013-01-18 20:04:00,
2013-01-18 15:10:00,21.9,-5.6,30.27,WNW,292,6.0,6.0,29,0.00,,,0.00,Wunderground v.1.12,2013-01-18 20:10:00,
2013-01-18 15:16:00,21.9,-7.0,30.27,WNW,284,6.0,6.0,27,0.00,,,0.00,Wunderground v.1.12,2013-01-18 20:16:00,
2013-01-18 15:23:00,21.9,-6.3,30.28,WNW,293,6.0,15.0,28,0.00,,,0.00,Wunderground v.1.12,2013-01-18 20:23:00,
2013-01-18 15:28:00,22.2,-6.0,30.28,WSW,249,7.0,12.0,28,0.00,,,0.00,Wunderground v.1.12,2013-01-18 20:28:00,
2013-01-18 15:33:00,22.1,-6.1,30.27,WSW,252,9.0,12.0,28,0.00,,,0.00,Wunderground v.1.12,2013-01-18 20:33:00,
2013-01-18 15:39:00,22.1,-6.1,30.27,West,270,8.0,8.0,28,0.00,,,0.00,Wunderground v.1.12,2013-01-18 20:39:00,
2013-01-18 15:44:00,22.1,-4.7,30.27,WNW,290,5.0,5.0,30,0.00,,,0.00,Wunderground v.1.12,2013-01-18 20:44:00,
2013-01-18 15:50:00,22.1,-6.1,30.27,West,271,5.0,6.0,28,0.00,,,0.00,Wunderground v.1.12,2013-01-18 20:50:00,
2013-01-18 15:56:00,22.1,-6.1,30.27,West,268,5.0,8.0,28,0.00,,,0.00,Wunderground v.1.12,2013-01-18 20:56:00,
2013-01-18 16:03:00,21.9,-7.0,30.27,West,270,5.0,8.0,27,0.00,,,0.00,Wunderground v.1.12,2013-01-18 21:03:00,
2013-01-18 16:08:00,21.8,-6.4,30.27,WNW,294,5.0,8.0,28,0.00,,,0.00,Wunderground v.1.12,2013-01-18 21:08:00,
2013-01-18 16:13:00,21.6,-5.8,30.27,West,279,5.0,5.0,29,0.00,,,0.00,Wunderground v.1.12,2013-01-18 21:13:00,
2013-01-18 16:19:00,21.4,-6.7,30.27,West,273,5.0,5.0,28,0.00,,,0.00,Wunderground v.1.12,2013-01-18 21:19:00,
2013-01-18 16:25:00,21.1,-6.3,30.27,West,275,6.0,6.0,29,0.00,,,0.00,Wunderground v.1.12,2013-01-18 21:25:00,
2013-01-18 16:31:00,21.0,-6.3,30.27,West,274,5.0,6.0,29,0.00,,,0.00,Wunderground v.1.12,2013-01-18 21:31:00,
2013-01-18 16:39:00,20.6,-6.7,30.28,West,262,5.0,7.0,29,0.00,,,0.00,Wunderground v.1.12,2013-01-18 21:39:00,
2013-01-18 16:44:00,20.5,-7.5,30.28,West,273,4.0,4.0,28,0.00,,,0.00,Wunderground v.1.12,2013-01-18 21:44:00,
2013-01-18 16:49:00,20.5,-6.8,30.28,West,273,4.0,4.0,29,0.00,,,0.00,Wunderground v.1.12,2013-01-18 21:49:00,
2013-01-18 16:54:00,20.2,-6.3,30.28,West,273,3.0,3.0,30,0.00,,,0.00,Wunderground v.1.12,2013-01-18 21:54:00,
2013-01-18 17:00:00,20.0,-7.2,30.28,West,273,2.0,2.0,29,0.00,,,0.00,Wunderground v.1.12,2013-01-18 22:00:00,
2013-01-18 17:06:00,20.0,-6.5,30.30,West,273,2.0,4.0,30,0.00,,,0.00,Wunderground v.1.12,2013-01-18 22:06:00,
2013-01-18 17:13:00,20.0,-7.2,30.30,West,273,3.0,5.0,29,0.00,,,0.00,Wunderground v.1.12,2013-01-18 22:13:00,
2013-01-18 17:18:00,19.9,-7.3,30.30,West,273,2.0,3.0,29,0.00,,,0.00,Wunderground v.1.12,2013-01-18 22:18:00,
2013-01-18 17:23:00,19.9,-7.3,30.30,West,270,2.0,10.0,29,0.00,,,0.00,Wunderground v.1.12,2013-01-18 22:23:00,
2013-01-18 17:28:00,19.5,-7.0,30.30,West,273,1.0,2.0,30,0.00,,,0.00,Wunderground v.1.12,2013-01-18 22:28:00,
2013-01-18 17:34:00,19.1,-6.6,30.31,West,273,0.0,0.0,31,0.00,,,0.00,Wunderground v.1.12,2013-01-18 22:34:00,
2013-01-18 17:39:00,18.9,-6.8,30.31,West,273,0.0,0.0,31,0.00,,,0.00,Wunderground v.1.12,2013-01-18 22:39:00,
2013-01-18 17:44:00,18.9,-6.2,30.31,West,273,0.0,0.0,32,0.00,,,0.00,Wunderground v.1.12,2013-01-18 22:44:00,
2013-01-18 17:49:00,18.4,-6.6,30.31,West,273,0.0,0.0,32,0.00,,,0.00,Wunderground v.1.12,2013-01-18 22:49:00,
2013-01-18 17:55:00,18.1,-6.2,30.31,West,273,0.0,0.0,33,0.00,,,0.00,Wunderground v.1.12,2013-01-18 22:55:00,
2013-01-18 18:00:00,17.8,-5.9,30.31,West,273,0.0,0.0,34,0.00,,,0.00,Wunderground v.1.12,2013-01-18 23:00:00,
2013-01-18 18:06:00,17.5,-3.8,30.31,West,273,0.0,0.0,38,0.00,,,0.00,Wunderground v.1.12,2013-01-18 23:06:00,
2013-01-18 18:11:00,17.2,-2.0,30.31,West,273,0.0,0.0,42,0.00,,,0.00,Wunderground v.1.12,2013-01-18 23:11:00,
2013-01-18 18:18:00,16.9,-2.8,30.32,West,273,0.0,0.0,41,0.00,,,0.00,Wunderground v.1.12,2013-01-18 23:18:00,
2013-01-18 18:24:00,16.9,-2.8,30.32,N/A,-737280,0.0,0.0,41,0.00,,,0.00,Wunderground v.1.12,2013-01-18 23:24:00,
2013-01-18 18:29:00,16.1,-2.0,30.32,West,273,0.0,0.0,44,0.00,,,0.00,Wunderground v.1.12,2013-01-18 23:29:00,
2013-01-18 18:34:00,15.7,-2.4,30.32,West,273,0.0,0.0,44,0.00,,,0.00,Wunderground v.1.12,2013-01-18 23:34:00,
2013-01-18 18:40:00,15.6,-2.5,30.32,West,273,0.0,0.0,44,0.00,,,0.00,Wunderground v.1.12,2013-01-18 23:40:00,
2013-01-18 18:45:00,15.4,-2.7,30.32,West,273,0.0,0.0,44,0.00,,,0.00,Wunderground v.1.12,2013-01-18 23:45:00,
2013-01-18 18:51:00,15.4,-3.1,30.33,West,273,0.0,0.0,43,0.00,,,0.00,Wunderground v.1.12,2013-01-18 23:51:00,
2013-01-18 19:01:00,15.2,-3.3,30.33,West,273,0.0,0.0,43,0.00,,,0.00,Wunderground v.1.12,2013-01-19 00:01:00,
2013-01-18 19:06:00,15.2,-3.3,30.32,West,273,0.0,0.0,43,0.00,,,0.00,Wunderground v.1.12,2013-01-19 00:06:00,
2013-01-18 19:11:00,15.4,-1.7,30.32,West,273,0.0,0.0,46,0.00,,,0.00,Wunderground v.1.12,2013-01-19 00:11:00,
2013-01-18 19:16:00,15.4,-0.8,30.32,West,273,0.0,0.0,48,0.00,,,0.00,Wunderground v.1.12,2013-01-19 00:16:00,
2013-01-18 19:23:00,15.4,-1.3,30.33,West,270,0.0,2.0,47,0.00,,,0.00,Wunderground v.1.12,2013-01-19 00:23:00,
2013-01-18 19:28:00,15.2,-1.5,30.33,West,273,0.0,0.0,47,0.00,,,0.00,Wunderground v.1.12,2013-01-19 00:28:00,
2013-01-18 19:33:00,15.1,-2.0,30.32,West,273,0.0,0.0,46,0.00,,,0.00,Wunderground v.1.12,2013-01-19 00:33:00,
2013-01-18 19:38:00,15.1,-2.0,30.32,West,273,0.0,0.0,46,0.00,,,0.00,Wunderground v.1.12,2013-01-19 00:38:00,
2013-01-18 19:44:00,15.1,-2.5,30.32,West,273,0.0,1.0,45,0.00,,,0.00,Wunderground v.1.12,2013-01-19 00:44:00,
2013-01-18 19:50:00,15.1,-2.5,30.33,West,273,0.0,0.0,45,0.00,,,0.00,Wunderground v.1.12,2013-01-19 00:50:00,
2013-01-18 19:55:00,15.2,-2.4,30.33,West,273,0.0,0.0,45,0.00,,,0.00,Wunderground v.1.12,2013-01-19 00:55:00,
2013-01-18 20:01:00,15.2,-2.4,30.33,West,273,0.0,0.0,45,0.00,,,0.00,Wunderground v.1.12,2013-01-19 01:01:00,
2013-01-18 20:06:00,15.1,-1.5,30.33,West,273,0.0,0.0,47,0.00,,,0.00,Wunderground v.1.12,2013-01-19 01:06:00,
2013-01-18 20:11:00,15.2,-1.5,30.33,West,273,0.0,0.0,47,0.00,,,0.00,Wunderground v.1.12,2013-01-19 01:11:00,
2013-01-18 20:18:00,15.2,-1.5,30.33,West,273,0.0,0.0,47,0.00,,,0.00,Wunderground v.1.12,2013-01-19 01:18:00,
2013-01-18 20:23:00,15.2,-1.5,30.33,West,273,0.0,0.0,47,0.00,,,0.00,Wunderground v.1.12,2013-01-19 01:23:00,
2013-01-18 20:28:00,15.2,-1.5,30.33,West,273,0.0,0.0,47,0.00,,,0.00,Wunderground v.1.12,2013-01-19 01:28:00,
2013-01-18 20:33:00,15.2,-1.5,30.33,West,273,0.0,0.0,47,0.00,,,0.00,Wunderground v.1.12,2013-01-19 01:33:00,
2013-01-18 20:39:00,15.2,-1.0,30.33,West,273,0.0,0.0,48,0.00,,,0.00,Wunderground v.1.12,2013-01-19 01:39:00,
2013-01-18 20:44:00,15.1,-0.7,30.33,West,273,0.0,0.0,49,0.00,,,0.00,Wunderground v.1.12,2013-01-19 01:44:00,
2013-01-18 20:50:00,15.1,-1.1,30.33,West,273,0.0,0.0,48,0.00,,,0.00,Wunderground v.1.12,2013-01-19 01:50:00,
2013-01-18 20:56:00,15.2,-1.5,30.33,West,273,0.0,0.0,47,0.00,,,0.00,Wunderground v.1.12,2013-01-19 01:56:00,
2013-01-18 21:01:00,15.2,-1.5,30.33,West,273,0.0,0.0,47,0.00,,,0.00,Wunderground v.1.12,2013-01-19 02:01:00,
2013-01-18 21:08:00,15.4,-0.8,30.34,West,273,0.0,0.0,48,0.00,,,0.00,Wunderground v.1.12,2013-01-19 02:08:00,
2013-01-18 21:13:00,15.4,-0.4,30.34,West,273,0.0,0.0,49,0.00,,,0.00,Wunderground v.1.12,2013-01-19 02:13:00,
2013-01-18 21:19:00,15.2,-1.0,30.33,West,273,0.0,0.0,48,0.00,,,0.00,Wunderground v.1.12,2013-01-19 02:19:00,
2013-01-18 21:24:00,15.2,-1.0,30.33,West,273,0.0,0.0,48,0.00,,,0.00,Wunderground v.1.12,2013-01-19 02:24:00,
2013-01-18 21:29:00,15.1,-0.7,30.33,West,273,0.0,0.0,49,0.00,,,0.00,Wunderground v.1.12,2013-01-19 02:29:00,
2013-01-18 21:35:00,15.1,0.2,30.33,West,273,0.0,0.0,51,0.00,,,0.00,Wunderground v.1.12,2013-01-19 02:35:00,
2013-01-18 21:40:00,15.2,0.3,30.33,West,273,0.0,0.0,51,0.00,,,0.00,Wunderground v.1.12,2013-01-19 02:40:00,
2013-01-18 21:45:00,15.4,0.0,30.33,West,273,0.0,0.0,50,0.00,,,0.00,Wunderground v.1.12,2013-01-19 02:45:00,
2013-01-18 21:51:00,15.2,0.3,30.33,West,273,0.0,0.0,51,0.00,,,0.00,Wunderground v.1.12,2013-01-19 02:51:00,
2013-01-18 21:56:00,15.2,0.3,30.33,West,273,0.0,0.0,51,0.00,,,0.00,Wunderground v.1.12,2013-01-19 02:56:00,
2013-01-18 22:03:00,15.2,0.3,30.33,West,273,0.0,0.0,51,0.00,,,0.00,Wunderground v.1.12,2013-01-19 03:03:00,
2013-01-18 22:08:00,15.1,0.2,30.33,West,273,0.0,1.0,51,0.00,,,0.00,Wunderground v.1.12,2013-01-19 03:08:00,
2013-01-18 22:13:00,14.9,0.0,30.33,West,273,0.0,0.0,51,0.00,,,0.00,Wunderground v.1.12,2013-01-19 03:13:00,
2013-01-18 22:18:00,15.2,0.7,30.32,West,273,0.0,2.0,52,0.00,,,0.00,Wunderground v.1.12,2013-01-19 03:18:00,
2013-01-18 22:23:00,15.9,0.9,30.32,West,273,1.0,2.0,51,0.00,,,0.00,Wunderground v.1.12,2013-01-19 03:23:00,
2013-01-18 22:29:00,15.9,0.9,30.32,West,273,0.0,0.0,51,0.00,,,0.00,Wunderground v.1.12,2013-01-19 03:29:00,
2013-01-18 22:34:00,16.1,1.1,30.31,West,273,0.0,1.0,51,0.00,,,0.00,Wunderground v.1.12,2013-01-19 03:34:00,
2013-01-18 22:40:00,16.2,1.2,30.31,West,273,0.0,1.0,51,0.00,,,0.00,Wunderground v.1.12,2013-01-19 03:40:00,
2013-01-18 22:46:00,16.4,1.4,30.31,West,273,0.0,0.0,51,0.00,,,0.00,Wunderground v.1.12,2013-01-19 03:46:00,
2013-01-18 22:53:00,16.4,1.4,30.31,West,270,0.0,3.0,51,0.00,,,0.00,Wunderground v.1.12,2013-01-19 03:53:00,
2013-01-18 22:58:00,16.2,1.2,30.31,West,273,0.0,1.0,51,0.00,,,0.00,Wunderground v.1.12,2013-01-19 03:58:00,
2013-01-18 23:03:00,16.1,1.5,30.30,West,273,0.0,0.0,52,0.00,,,0.00,Wunderground v.1.12,2013-01-19 04:03:00,
2013-01-18 23:08:00,16.1,1.5,30.30,West,273,0.0,1.0,52,0.00,,,0.00,Wunderground v.1.12,2013-01-19 04:08:00,
2013-01-18 23:13:00,16.1,1.5,30.30,West,273,0.0,1.0,52,0.00,,,0.00,Wunderground v.1.12,2013-01-19 04:13:00,
2013-01-18 23:18:00,15.9,1.8,30.30,West,273,0.0,0.0,53,0.00,,,0.00,Wunderground v.1.12,2013-01-19 04:18:00,
2013-01-18 23:24:00,16.1,2.4,30.30,West,273,0.0,0.0,54,0.00,,,0.00,Wunderground v.1.12,2013-01-19 04:24:00,
2013-01-18 23:29:00,16.2,2.0,30.30,West,273,0.0,0.0,53,0.00,,,0.00,Wunderground v.1.12,2013-01-19 04:29:00,
2013-01-18 23:34:00,16.4,2.6,30.29,West,273,0.0,1.0,54,0.00,,,0.00,Wunderground v.1.12,2013-01-19 04:34:00,
2013-01-18 23:40:00,16.9,2.7,30.29,West,262,0.0,4.0,53,0.00,,,0.00,Wunderground v.1.12,2013-01-19 04:40:00,
2013-01-18 23:46:00,17.5,2.8,30.29,SW,224,1.0,3.0,52,0.00,,,0.00,Wunderground v.1.12,2013-01-19 04:46:00,
2013-01-18 23:51:00,17.8,3.5,30.28,SW,216,0.0,4.0,53,0.00,,,0.00,Wunderground v.1.12,2013-01-19 04:51:00,
2013-01-18 23:58:00,18.4,3.3,30.28,South,186,1.0,1.0,51,0.00,,,0.00,Wunderground v.1.12,2013-01-19 04:58:00,